This is the latest recevied weather packets stored in our database for station/object W1REE. If no packets are shown the sender has not sent any weather packets the latest 10 day(s).
| Time | Temp. | Humidity | Pressure | Rain* | Wind** | Luminosity | Snow |
|---|---|---|---|---|---|---|---|
| 1777916557 | 21.67° C | 14% | 1011.9 hPa | 0 mm | - | 1018 W/m² | - |
| 1777916253 | 20.56° C | 17% | 1012.1 hPa | 0 mm | - | 755 W/m² | - |
| 1777915950 | 20.56° C | 16% | 1012.1 hPa | 0 mm | - | 327 W/m² | - |
| 1777915647 | 20.56° C | 17% | 1012.4 hPa | 0 mm | - | 1083 W/m² | - |
| 1777915344 | 20.56° C | 17% | 1012.3 hPa | 0 mm | - | 1028 W/m² | - |
| 1777915040 | 20.56° C | 17% | 1012.4 hPa | 0 mm | - | 1023 W/m² | - |
| 1777914737 | 20.56° C | 20% | 1012.4 hPa | 0 mm | - | 413 W/m² | - |
| 1777914434 | 20.56° C | 21% | 1012.4 hPa | 0 mm | - | 553 W/m² | - |
| 1777914131 | 20.56° C | 20% | 1012.8 hPa | 0 mm | - | 602 W/m² | - |
| 1777913827 | 20.56° C | 19% | 1012.4 hPa | 0 mm | - | 817 W/m² | - |
| 1777913523 | 20.56° C | 19% | 1012.4 hPa | 0 mm | - | 984 W/m² | - |
| 1777913220 | 20° C | 18% | 1012.4 hPa | 0 mm | - | 706 W/m² | - |
| 1777912916 | 20° C | 22% | 1012.4 hPa | 0 mm | - | 564 W/m² | - |
| 1777912613 | 20° C | 21% | 1012.7 hPa | 0 mm | - | 545 W/m² | - |
| 1777912309 | 20° C | 21% | 1012.4 hPa | 0 mm | - | 526 W/m² | - |
| 1777912005 | 20° C | 21% | 1012.4 hPa | 0 mm | - | 646 W/m² | - |
| 1777911702 | 20° C | 21% | 1012.5 hPa | 0 mm | - | 653 W/m² | - |
| 1777911398 | 20° C | 20% | 1012.8 hPa | 0 mm | - | 593 W/m² | - |
| 1777911096 | 20.56° C | 20% | 1012.5 hPa | 0 mm | - | 393 W/m² | - |
| 1777910793 | 20.56° C | 19% | 1012.8 hPa | 0 mm | - | 543 W/m² | - |
| 1777910489 | 20° C | 21% | 1012.9 hPa | 0 mm | - | 723 W/m² | - |
| 1777910186 | 19.44° C | 20% | 1012.8 hPa | 0 mm | - | 637 W/m² | - |
| 1777909883 | 18.89° C | 21% | 1012.9 hPa | 0 mm | - | 581 W/m² | - |
| 1777909580 | 18.89° C | 21% | 1013 hPa | 0 mm | - | 463 W/m² | - |
| 1777909278 | 18.89° C | 21% | 1012.8 hPa | 0 mm | - | 457 W/m² | - |
* Rain latest hour (hover to see other rain measurements)
** Current wind speed in m/s (hover to see current wind gust speed)